Location: G�kdere
(37.0328°N, 30.9000°E)
Time: 04:07:58
(UTC+00:00)

Okean 1 - Pass Details

Date: 03 March 2021
Orbit: 538 x 554 km, 82.5° (Epoch: 20 April)

Event Time Altitude Azimuth Distance (km) Brightness Sun altitude
Rises 16:21:13 0° 2° (N) 2,729 6.8 -6.5°
Reaches altitude 10° 16:23:31 10° 10° (N) 1,834 5.9 -7.0°
Maximum altitude 16:27:17 37° 79° (E) 866 3.8 -7.7°
Drops below altitude 10° 16:31:02 10° 148° (SSE) 1,827 5.7 -8.5°
Sets 16:33:18 0° 156° (SSE) 2,718 6.6 -8.9°
